sat.trackr.live / text

‹ back to catalog

STARLINK-5923

NORAD 56489 · 2023-064AT

PAYLOAD ACTIVE UNKNOWN

§ Identity

Operator
Country
US
Launch date
2023-05-10
Launch site
AFWTR
Launch vehicle
Mass (kg)
RCS (m²)

Purposes: comms

External: N2YO · Heavens-Above · Gunter

§ Orbital elements

Epoch: 2026-05-24T19:23:04.415136Z

Period
96.11 min
Inclination
69.9992°
Eccentricity
0.0003252
Mean motion
14.98332129 rev/d
Perigee alt
569.8 km
Apogee alt
574.3 km
Semi-major
6,950.2 km
B*
1.4319e-5
RAAN
272.5551°
Arg perigee
269.1086°
Mean anomaly
90.9701°
Rev number
16,763

§ Raw data

STARLINK-59231 56489U 23064AT  26144.80768999  .00000078  00000+0  14319-4 0  99962 56489  69.9992 272.5551 0003252 269.1086  90.9701 14.98332129167630

JSON: /api/v1/satellites/56489 · /tle

For live sub-satellite position, see the globe view (requires WebGL).

§ Visibility from observer

Set your observer location to see the next 7 days of passes ≥ 10°. The values pass through the URL so the page stays shareable.

No JS? Fill the form by hand. The geolocation button needs JavaScript.